Location: Garijp
(53.1660°N, 5.9694°E)
Time: 07:26:44
(UTC+00:00)

Daily predictions for brighter satellites

Satellite Brightness Start Highest point End
(mag) Time Altitude Azimuth Time Altitude Azimuth Time Altitude Azimuth
Cosmos 1980 Rocket 3.9 15:58:23 10° W 16:02:45 23° NNW 16:07:08 10° NNE
Cosmos 2074 Rocket 4.0 15:58:18 10° N 16:04:30 63° ENE 16:10:42 10° SSE
Envisat 3.1 15:59:35 10° SSE 16:04:34 60° ENE 16:09:35 10° N
CZ-4B R/B 3.4 15:59:36 10° SE 16:04:38 45° ENE 16:09:40 10° N
SL-16 R/B 3.2 15:59:27 10° WSW 16:04:52 44° NW 16:10:18 10° NNE
SMAP 3.5 16:02:20 10° SE 16:06:38 39° ENE 16:11:00 10° N
Cosmos 2237 Rocket 3.5 16:03:32 10° SSE 16:07:34 21° E 16:11:38 10° NE
GENESIS II 4.3 16:06:09 10° NW 16:10:06 55° NE 16:13:57 10° ESE
CREW DRAGON DEMO-1 DEB 3.1 16:09:12 10° W 16:12:10 64° S 16:15:08 10° ESE
Cosmos-2242 3.9 16:10:05 10° SSW 16:14:21 52° WNW 16:18:40 10° N
Cosmos 1184 Rocket 4.4 16:11:23 10° NNW 16:14:28 39° W 16:17:30 10° SSW
Cosmos 2369 Rocket 3.6 16:11:34 10° NNW 16:15:43 20° NNE 16:19:50 10° ENE
Cosmos 2322 3.7 16:11:08 10° SSW 16:16:47 77° ESE 16:22:30 10° NE
Cosmos 2184 Rocket 4.0 16:10:30 10° N 16:16:55 74° ENE 16:23:17 10° SSE
H-2A R/B 3.7 16:14:54 10° ENE 16:17:20 13° NE 16:19:45 10° NNE
Cosmos 1939 Rocket 4.2 16:15:27 10° ESE 16:18:08 18° ENE 16:20:52 10° NNE
Cosmos 1869 3.3 16:14:35 10° S 16:18:37 68° E 16:22:43 10° NNE
Cosmos 921 Rocket 3.9 16:14:28 10° SW 16:18:53 51° WNW 16:23:19 10° NNE
USA 281 3.8 16:13:47 10° ESE 16:19:35 35° NE 16:25:25 10° NNW
CORIOLIS 4.3 16:17:05 10° SE 16:22:18 51° ENE 16:27:33 10° N
Cosmos 1814 Rocket 4.2 16:18:56 10° S 16:24:09 58° ESE 16:29:22 10° NNE
SL-08 R/B 4.2 16:24:15 10° N 16:29:03 52° WNW 16:33:45 10° SW
Cosmos 2221 2.6 16:25:12 10° S 16:29:29 60° E 16:33:45 10° NNE
Cosmos 1500 Rocket 3.5 16:27:08 10° N 16:31:31 76° ENE 16:35:55 10° SSE
H-2A R/B 3.3 16:28:30 10° S 16:32:17 62° WSW 16:36:09 10° NNW
Cosmos 1570 Rocket 4.0 16:28:17 10° SSW 16:33:35 76° ESE 16:38:53 10° NNE
Meteor 2-2 Rocket 4.4 16:31:04 10° S 16:36:57 65° E 16:42:46 10° NNE
YAOGAN 6 2.6 16:33:26 10° SSE 16:37:06 88° ENE 16:40:45 10° NNW
CZ-4C R/B 3.1 16:33:42 10° NNE 16:37:19 65° ESE 16:40:55 10° S
Cosmos 405 Rocket 2.7 16:35:54 10° NNW 16:39:47 86° ENE 16:43:44 10° SSE
Cosmos 2333 4.4 16:34:07 10° SW 16:39:48 76° WNW 16:45:28 10° NNE
Cosmos 2297 4.1 16:36:37 10° NNW 16:42:01 43° NE 16:47:26 10° ESE
ADEOS Rocket 3.6 16:34:27 10° NNE 16:42:04 84° ESE 16:49:54 10° SSW
Cosmos 1943 Rocket 2.9 16:40:20 10° NNW 16:45:15 31° NE 16:50:06 10° ESE
YAOGAN 1 3.9 16:44:25 10° ESE 16:47:33 20° ENE 16:50:40 10° NNE
Cosmos 405 2.9 16:44:09 10° SSW 16:47:39 87° WNW 16:51:10 10° NNE
Cosmos 389 Rocket 3.7 16:45:43 10° SE 16:48:22 21° E 16:49:22 19° ENE
Cosmos 1763 Rocket 4.4 16:43:36 10° SW 16:48:30 46° NW 16:53:23 10° NNE
Cosmos 44 3.7 16:43:34 10° NW 16:48:36 49° NE 16:53:48 10° ESE
BREEZE-M DEB (TANK) 3.6 16:50:22 10° SSW 16:52:02 19° SSE 16:53:03 14° ESE
H-2A R/B 3.3 16:48:09 10° S 16:52:25 57° WSW 16:56:33 10° NNW
USA 215 4.1 16:47:52 14° ENE 16:52:43 33° SE 16:58:31 10° SSW
Cosmos 2322 Rocket 3.7 16:48:04 10° W 16:53:02 30° NW 16:58:00 10° NNE
Cosmos 1743 Rocket 4.0 16:49:23 10° NNW 16:53:51 68° W 16:58:16 10° S
COSMO-SKYMED 1 3.8 16:52:06 17° NE 16:54:04 22° E 16:57:28 10° SE
SL-16 R/B 3.5 16:51:41 10° SE 16:55:29 19° E 16:56:52 17° E
Cosmos 2218 Rocket 4.4 16:50:35 10° N 16:56:21 39° ENE 17:02:03 10° SE
Cosmos 2150 Rocket 4.5 16:51:58 10° NNW 16:57:06 63° WSW 17:02:10 10° S
CZ-2C R/B 3.7 16:53:21 10° ESE 16:57:41 29° ENE 17:01:53 10° N
Cosmos 1818 4.2 16:53:21 10° NW 16:58:44 59° SW 17:04:05 10° SSE
ARGOS 4.4 16:57:00 17° ENE 16:58:48 21° NE 17:02:41 10° N
Okean-O 3.5 16:55:08 10° ESE 16:58:54 28° ENE 17:02:41 10° N
Cosmos 1900 4.4 16:57:23 10° SSW 17:02:29 73° SE 17:06:28 17° NE
Sich 1 3.0 16:58:37 10° N 17:03:02 64° ENE 17:07:22 10° SSE
AQUARIUS 4.3 16:58:33 10° SSE 17:03:04 81° WSW 17:07:35 10° NNW
Cosmos 1606 3.2 17:02:19 10° SSE 17:05:58 39° E 17:08:40 16° NNE
Cosmos 2366 rocket 4.2 17:01:34 10° N 17:07:31 44° ENE 17:13:23 10° SE
Okean O Rocket 2.0 17:05:45 10° S 17:10:04 68° WSW 17:14:28 10° NNW
Cosmos 1842 Rocket 4.3 17:06:05 10° SSW 17:10:18 53° WNW 17:14:35 10° N
Cosmos 2333 Rocket 2.7 17:05:00 10° SW 17:10:38 61° NW 17:16:12 10° NNE
Helios 1A Rocket 3.5 17:07:54 10° SE 17:11:29 32° ENE 17:15:06 10° N
Cosmos 1125 Rocket 3.9 17:06:44 10° NNW 17:11:55 67° WSW 17:17:04 10° SSE
ISS -2.3 17:09:43 10° SSW 17:12:35 26° SSE 17:13:33 23° ESE
Cosmos 1356 3.2 17:09:24 10° N 17:12:50 68° ENE 17:16:15 10° SSE
Nadezhda 1 Rocket 4.0 17:07:21 10° S 17:13:43 89° ESE 17:20:11 10° N
Cosmos 1805 Rocket 3.7 17:09:28 10° NNW 17:13:57 80° W 17:18:24 10° S
Meteor 1-20 Rocket 4.4 17:08:18 10° N 17:14:04 56° ENE 17:19:49 10° SSE
COSMOS 2428 3.0 17:10:23 10° SW 17:16:07 68° NW 17:21:31 12° NNE
CZ-4B R/B 1.4 17:17:16 39° ENE 17:17:52 46° E 17:20:52 10° S
Feng Yun 1-1 Rocket 4.2 17:12:12 10° SSE 17:17:59 76° ENE 17:23:40 10° NNW
Cosmos 2208 Rocket 4.5 17:13:10 10° SW 17:18:25 63° WNW 17:23:47 10° NNE
Cosmos 2278 Rocket 3.4 17:13:41 10° NW 17:19:03 44° WSW 17:24:24 10° S
Cosmos 1666 Rocket 3.5 17:15:48 10° N 17:20:11 62° ENE 17:24:33 10° SSE
Cosmos 1151 Rocket 3.7 17:19:29 10° SSE 17:23:17 31° E 17:23:25 31° E
CRYOSAT 2 4.5 17:18:45 10° N 17:23:39 79° W 17:28:32 10° SSW
IRS-1C Rocket 4.0 17:22:08 10° SSE 17:27:22 72° ENE 17:32:41 10° NNW
USA 267 3.4 17:21:50 10° ESE 17:28:22 77° SSW 17:34:57 10° WNW
Cosmos 1328 Rocket 4.3 17:25:21 10° SSE 17:28:37 31° ESE 17:28:37 31° ESE
ERS-2 2.1 17:29:45 33° NE 17:31:12 61° ESE 17:34:50 10° S
Cosmos 2341 Rocket 4.0 17:25:50 10° N 17:32:08 88° W 17:38:27 10° S
SL-24 R/B 4.3 17:32:45 39° E 17:32:49 39° E 17:36:27 10° SSE
Cosmos 724 4.5 17:26:57 10° SW 17:32:52 73° NW 17:37:05 21° NE
Meteor 1-25 Rocket 4.1 17:27:20 10° N 17:32:56 71° ENE 17:38:34 10° SSE
Cosmos 2360 Rocket 3.9 17:29:14 10° W 17:33:59 27° NW 17:38:45 10° NNE
Cosmos 1602 4.4 17:31:46 10° N 17:34:42 36° NE 17:34:42 36° NE
NOSS 0 Rocket 3.9 17:29:47 10° SSW 17:36:02 88° WNW 17:40:49 18° NNE
CZ-2D R/B 3.1 17:33:10 10° SSE 17:36:58 70° ENE 17:40:48 10° N
H-2A R/B 3.0 17:35:30 10° N 17:39:28 45° WNW 17:43:28 10° SW
CSL-04 Debris 4.5 17:36:10 18° SE 17:39:53 45° ENE 17:45:05 10° N
CZ-4 R/B 1.3 17:38:23 28° SE 17:40:14 55° ENE 17:44:11 10° N
Cosmos 2219 Rocket 3.2 17:36:21 10° WSW 17:41:44 44° NW 17:46:25 14° NNE
SKYMED 2 3.6 17:40:45 33° NE 17:42:30 58° ESE 17:46:47 10° S
USA 81 3.9 17:38:32 10° N 17:43:51 80° E 17:49:08 10° S
BREEZE-M DEB (TANK) 4.4 17:42:45 10° SSW 17:43:12 12° S 17:43:12 12° S
SL-24 DEB 4.4 17:41:03 10° NNE 17:45:44 50° E 17:50:20 10° SSE
Cosmos 2285 Rocket 3.9 17:40:52 10° NNW 17:47:20 86° ENE 17:53:43 10° SSE
CREW DRAGON DEMO-1 DEB 4.2 17:44:40 10° W 17:47:23 31° SSW 17:47:43 30° S
Cosmos 1980 Rocket 4.3 17:46:32 10° NNW 17:48:59 13° N 17:51:10 11° NNE
SL-16 R/B 4.3 17:46:51 10° WNW 17:50:30 17° NNW 17:54:07 10° NNE
Cosmos 1633 Rocket 3.0 17:46:29 10° NNW 17:50:55 82° W 17:55:17 10° S
Cosmos 2237 Rocket 2.2 17:45:19 10° SSW 17:50:58 84° WNW 17:54:26 25° NNE
Cosmos 1939 Rocket 3.3 17:48:53 10° S 17:52:42 59° W 17:56:35 10° NNW
Cosmos 44 Rocket 4.2 17:48:31 10° NW 17:53:09 33° NNE 17:53:24 33° NNE
Cosmos 1656 Rocket 4.3 17:48:59 10° NNW 17:54:12 36° NE 17:54:21 36° NE
H-2A R/B 2.1 17:52:26 22° SE 17:55:48 57° ENE 18:00:54 10° N
SL-8 Rocket 4.1 17:50:04 10° NNW 17:56:19 79° W 18:02:33 10° S
Cosmos 864 Rocket 4.4 17:49:57 10° N 17:56:21 86° E 18:02:38 10° S
Cosmos 2369 Rocket 2.2 17:55:22 10° NNW 18:01:01 57° NE 18:02:10 48° E
CSL-04 Rocket 3.6 18:01:44 38° SE 18:03:36 60° ENE 18:08:51 10° N
USA 281 3.3 17:57:07 10° SSE 18:03:41 75° WSW 18:10:18 10° NNW
MOS 1 Rocket 3.7 18:03:47 50° E 18:03:47 50° E 18:09:04 10° S
Cosmos 783 Rocket 4.5 18:01:27 10° S 18:06:40 61° ESE 18:07:10 58° E
Cosmos 2181 Rocket 4.0 18:00:26 10° S 18:06:52 88° ESE 18:13:18 10° N
Cosmos 1980 4.1 18:03:36 10° SW 18:09:15 63° NW 18:12:27 26° NNE
Cosmos 1821 Rocket 4.0 18:03:57 10° N 18:10:02 55° ENE 18:11:29 45° ESE
Cosmos 389 Rocket 4.1 18:19:47 10° SW 18:22:54 32° WNW 18:23:14 31° WNW
YAOGAN 1 2.8 18:21:23 33° S 18:23:13 67° WSW 18:27:33 10° NNW
SL-08 R/B 4.4 18:18:50 10° N 18:25:05 90° WSW 18:31:12 10° S
Cosmos 1470 Rocket 3.9 18:21:59 10° NNW 18:26:18 64° W 18:27:22 46° SSW
Cosmos 1933 4.2 18:25:26 10° SSW 18:29:21 49° WNW 18:29:42 48° NW
Cosmos 1943 Rocket 2.3 18:23:57 10° NW 18:29:28 69° WSW 18:31:41 37° S
Meteor 1-14 Rocket 4.4 18:23:36 10° NNW 18:29:32 80° W 18:35:30 10° S
Cosmos 44 4.4 18:24:54 10° NW 18:29:56 47° WSW 18:32:40 25° S
COSMO-SKYMED 1 3.2 18:29:20 39° NNW 18:30:33 53° WNW 18:34:46 10° SW
Okean-O 3.6 18:30:58 10° S 18:35:13 45° W 18:39:30 10° NNW
USA 215 3.1 18:35:13 63° E 18:36:21 80° SSE 18:42:55 10° WSW
CZ-2C R/B 3.7 18:32:26 10° S 18:37:25 51° W 18:42:11 10° NNW
SJ-11-01 4.5 18:37:47 70° W 18:37:47 70° W 18:42:27 10° NNW
Cosmos 1867 3.5 18:32:47 10° SW 18:37:58 81° SSW 18:37:58 81° SSW
ARGOS 3.0 18:38:30 87° N 18:38:30 87° N 18:43:53 10° NNW
SL-16 R/B 2.1 18:33:08 10° SSW 18:38:47 88° SSE 18:38:47 88° SSE
Cosmos 2322 Rocket 4.4 18:36:06 10° NW 18:39:03 14° NNW 18:40:48 13° N
Meteor 1-26 Rocket 4.5 18:38:04 10° SSW 18:44:05 74° WNW 18:48:00 23° N
ISS -0.8 18:45:43 10° WSW 18:46:31 16° WSW 18:46:31 16° WSW
Cosmos 2263 4.3 18:43:25 10° NNW 18:48:12 65° NNW 18:48:12 65° NNW
CZ-4B R/B 4.4 18:50:25 14° WNW 18:50:25 14° WNW 18:51:34 10° W
Cosmos 2333 Rocket 4.2 18:51:53 10° WNW 18:56:05 21° NNW 18:58:12 17° N
NOSS 3-3 (A) 4.3 19:04:23 10° NW 19:11:31 82° NNE 19:11:31 82° NNE
NOSS 3-3 (C) 4.3 19:04:29 10° NW 19:11:36 82° NNE 19:11:36 82° NNE
CZ-4 R/B 4.0 19:14:25 16° WSW 19:15:38 18° W 19:18:26 10° NW
Cosmos 2219 Rocket 4.4 19:23:36 10° WNW 19:27:13 17° NNW 19:28:08 16° N
H-2A R/B 3.9 19:33:04 19° SW 19:35:33 27° W 19:39:58 10° NW
Cosmos 2237 Rocket 4.0 19:31:16 10° W 19:35:52 25° NW 19:36:17 25° NNW
Cosmos 2369 Rocket 3.8 19:39:46 10° NW 19:43:59 31° W 19:43:59 31° W
